Regional Weather Roundup
Issued by NWS Jackson, KY

Home | Current Version | Previous Version | Text Only | Print | Product List | Glossary Off
Versions: 1 2 3 4 5 6 7 8 9 10 11 12 13 14 15 16 17 18 19 20 21 22 23 24 25 26 27 28 29 30 31 32 33 34 35 36 37 38 39 40 41 42 43 44 45 46 47 48 49 50

000
ASUS43 KJKL 291710
RWRJKL

EAST KENTUCKY HOURLY WEATHER ROUNDUP
NATIONAL WEATHER SERVICE JACKSON KY
100 PM EDT SAT APR 29 2017

NOTE: "FAIR" INDICATES FEW OR NO CLOUDS BELOW 12,000 FEET WITH
NO SIGNIFICANT WEATHER AND/OR OBSTRUCTIONS TO VISIBILITY.

* THESE REPORTS ARE NOT UNDER NWS QUALITY CONTROL AND MAY NOT
  REPORT WEATHER SUCH AS PRECIPITATION AND FOG.

KYZ079-080-083-085-087-088-110-112-115-119-120-291800
...EASTERN KENTUCKY...

CITY           SKY/WX    TMP DP  RH WIND       PRES   REMARKS
JACKSON        CLOUDY    83  66  56 CALM      30.12F
LONDON         CLOUDY    83  63  50 S7        30.09F
SOMERSET*      CLOUDY    81  63  54 NW3       30.10S
MONTICELLO*    MOSUNNY   86  66  51 W20       30.09S
WILLIAMSBURG*  CLOUDY    86  59  39 SW10G23   30.08F
MIDDLESBORO*   CLOUDY    85  64  50 S10G18    30.10F
HARLAN APT*    CLOUDY    86  52  30 S8G17     30.12F
PIKE CO APT*     N/A     81  64  56 NW8       30.13F
BIG SANDY APT* MOSUNNY   82  66  58 NW3       30.13S
MOREHEAD APT*  CLOUDY    77  68  73 W12G17    30.14R
$$

KYZ035-036-041-042-044-050-067-078-099-291800
...CENTRAL KENTUCKY...

CITY           SKY/WX    TMP DP  RH WIND       PRES   REMARKS
MT STERLING*   CLOUDY    79  68  69 NW7       30.13S
FLEMING/MASON* CLOUDY    72  65  80 CALM      30.13F
DANVILLE*      CLOUDY    81  64  57 W3        30.10F
LEXINGTON      CLOUDY    77  65  66 N8        30.11F
FRANKFORT      CLOUDY    74  62  66 E5        30.09S
LOUISVILLE     PTSUNNY   75  65  70 E10       30.06F
LEBANON*         N/A     82  66  57 SW7       30.07F
GLASGOW*       MOSUNNY   83  67  56 SW3       30.04F
BOWLING GREEN  CLOUDY    84  68  58 SW12      30.03F
$$

KYZ091>093-OHZ055-061-077-WVZ005-015-034-035-042-291800
...SOUTHERN OHIO/WEST VIRGINIA...

CITY           SKY/WX    TMP DP  RH WIND       PRES   REMARKS
COVINGTON      CLOUDY    69  64  84 E7        30.10F
COLUMBUS       CLOUDY    64  63  96 NE7       30.12R
DAYTON         CLOUDY    65  64  97 S9        30.09F
WILMINGTON     CLOUDY    65  64  97 S3        30.12R
HUNTINGTON     CLOUDY    81  66  60 S6        30.10F
CHARLESTON     CLOUDY    83  65  54 W3        30.12R
PINEVILLE*     CLOUDY    88  55  31 MISG      30.18F
BECKLEY        MOSUNNY   82  56  40 SE6G16    30.18F
BLUEFIELD      SUNNY     82  51  34 W13G20    30.21F
LOGAN CO APT*    N/A     82  63  51 W5        30.15S
$$

VAZ002-007-008-TNZ017-027-036-066-071-291800
...SOUTHWEST VIRGINIA/EAST TENNESSEE...

CITY           SKY/WX    TMP DP  RH WIND       PRES   REMARKS
WISE*          CLOUDY    81  54  39 S15G24    30.21S
JONESVILLE*      N/A     88  59  37 SW18G29   30.14F
ABINGDON*      CLOUDY    85  61  43 W9        30.18F
BRISTOL        PTSUNNY   86  66  51 W8        30.13F
MORRISTOWN*    SUNNY     84  66  54 W9        30.11F
SEVIERVILLE*   SUNNY     84  66  54 VRB5      30.09F
KNOXVILLE      CLOUDY    86  65  49 SW16G24   30.09F
LAFOLLETTE*    SUNNY     84  66  54 S17       30.12F
OAK RIDGE      SUNNY     87  62  43 S8G20     30.10F
CROSSVILLE     MOSUNNY   80  64  58 MISG      30.13S
NASHVILLE      PTSUNNY   85  66  53 S15       30.01F
$$

...KEY TO REMARKS...
VSB - VISIBILITY IN MILES
WCI - WIND CHILL INDEX
HX  - HEAT INDEX

$$



USA.gov is the U.S. government's official web portal to all federal, state and local government web resources and services.